(361563) = 2006 KJ139 = 2007 RZ50

Discovered at Kitt Peak on 2007-09-09 by Spacewatch.

Orbit

Orbit type: Main Belt

Note: WebGL enabled browser required.

epoch2024-03-31.0
epoch JD2460400.5
perihelion date2024-03-27.70372
perihelion JD2460397.20373
argument of perihelion (°)267.01995
ascending node (°)250.68472
inclination (°)5.44455
eccentricity0.0528452
perihelion distance (AU)2.2808745
Tisserand w.r.t. Jupiter3.5
ΔV w.r.t. Earth (km/sec)9.5
semimajor axis (AU)2.4081328
mean anomaly (°)0.86937
mean daily motion (°/day)0.26374450
aphelion distance (AU)2.535
period (years)3.74
P-vector [x]-0.92098887
P-vector [y]0.38439870
P-vector [z]0.06338094
Q-vector [x]-0.37915929
Q-vector [y]-0.84700077
Q-vector [z]-0.37259619
absolute magnitude17.36
phase slope0.15
uncertainty0
referenceE2024-GI3
observations used348
oppositions15
arc length (days)7511
first opposition used2003
last opposition used2024
residual rms (arc-secs)0.60
perturbers coarse indicatorM-v
perturbers precise indicator003Ek
first observation date used2003-09-19.0
last observation date used2024-04-12.0
computer nameMPCLINUX
JD of orbit computation2456909.212171
perihelion JD uncertainty (days)1.7187E-04
argument of perihelion uncertainty (°)7.8795E-05
ascending node uncertainty (°)6.6601E-05
inclination uncertainty (°)4.2504E-06
eccentricity uncertainty 7.0462E-08
perihelion distance uncertainty (AU)1.5916E-07
Minimum Orbit Intersection Distances (in AU)
for orbit epoch: 2460400.5, reference: E2024-GI3
Mercury1.89156
Venus1.57423
Earth1.29781
Mars0.662
Jupiter2.46417
Saturn6.67062
Uranus16.1725
Neptune27.3473

Observations

359 total observations over interval: 2003 09 19.12691 – 2024 03 02.454235
These data are available for download (format description).

Date (UT) J2000 RA J2000 Dec Magn Location Ref
2003 09 19.12691 22 01 12.09 -02 54 00.8 21.8 V 691 – Steward Observatory, Kitt Peak-Spacewatch MPS 220636
2003 09 19.16035 22 01 10.71 -02 54 12.0 21.7 V 691 – Steward Observatory, Kitt Peak-Spacewatch MPS 220636
2003 09 19.18705 22 01 09.61 -02 54 21.5 21.9 V 691 – Steward Observatory, Kitt Peak-Spacewatch MPS 220636
2004 12 11.39948 07 01 10.37 +19 06 47.2 20.7 V 691 – Steward Observatory, Kitt Peak-Spacewatch MPS 220636
2004 12 11.42562 07 01 09.02 +19 06 43.9 20.5 V 691 – Steward Observatory, Kitt Peak-Spacewatch MPS 220636
2004 12 11.45156 07 01 07.69 +19 06 40.6 20.7 V 691 – Steward Observatory, Kitt Peak-Spacewatch MPS 220636
2006 05 23.31983 16 23 17.70 -22 31 39.3 20.0 V G96 – Mt. Lemmon Survey MPS 192271
2006 05 23.32540 16 23 17.30 -22 31 37.8 20.1 V G96 – Mt. Lemmon Survey MPS 192271
2006 05 23.33095 16 23 16.98 -22 31 36.8 20.0 V G96 – Mt. Lemmon Survey MPS 192271
2006 05 23.33651 16 23 16.62 -22 31 34.6 20.2 V G96 – Mt. Lemmon Survey MPS 192271
2006 05 25.39308 16 21 12.52 -22 21 25.9 20.1 R 568 – Maunakea MPS 192271
2006 05 25.43000 16 21 10.17 -22 21 15.0 20.0 R 568 – Maunakea MPS 192271
2006 05 25.48119 16 21 06.93 -22 20 59.6 20.1 R 568 – Maunakea MPS 192271
2006 05 26.46273 16 20 07.47 -22 16 05.0 20.1 R 568 – Maunakea MPS 192271
2007 09 09.40449 00 27 07.39 +11 48 53.8   691 – Steward Observatory, Kitt Peak-Spacewatch MPS 216376
2007 09 09.42213 00 27 06.63 +11 48 50.4   691 – Steward Observatory, Kitt Peak-Spacewatch MPS 216376
2007 09 09.43977 00 27 05.78 +11 48 46.1   691 – Steward Observatory, Kitt Peak-Spacewatch MPS 216376
2007 09 13.34647 00 24 07.24 +11 32 43.0 20.6 V 691 – Steward Observatory, Kitt Peak-Spacewatch MPS 216376
2007 09 13.36412 00 24 06.37 +11 32 38.8 20.4 V 691 – Steward Observatory, Kitt Peak-Spacewatch MPS 216376
2007 09 13.38176 00 24 05.49 +11 32 33.6 20.5 V 691 – Steward Observatory, Kitt Peak-Spacewatch MPS 216376
2007 09 19.40802 00 19 04.49 +11 02 10.1 20.5 V 691 – Steward Observatory, Kitt Peak-Spacewatch MPS 217777
2007 09 19.42564 00 19 03.55 +11 02 04.0 20.6 V 691 – Steward Observatory, Kitt Peak-Spacewatch MPS 217777
2007 09 19.44087 00 19 02.72 +11 01 58.9 20.6 V 691 – Steward Observatory, Kitt Peak-Spacewatch MPS 217777
2007 10 15.22582 23 57 01.62 +08 04 49.1 20.6 V G96 – Mt. Lemmon Survey MPS 220636
2007 10 15.22727 23 57 01.55 +08 04 49.2   291 – LPL/Spacewatch II MPS 220636
2007 10 15.23140 23 57 01.34 +08 04 46.8   291 – LPL/Spacewatch II MPS 220636
2007 10 15.23448 23 57 01.22 +08 04 44.9 20.7 V G96 – Mt. Lemmon Survey MPS 220636
2007 10 15.23579 23 57 01.17 +08 04 45.0   291 – LPL/Spacewatch II MPS 220636
2007 10 15.24287 23 57 00.86 +08 04 41.8 20.8 V G96 – Mt. Lemmon Survey MPS 220636
2007 10 15.25146 23 57 00.50 +08 04 37.8 20.6 V G96 – Mt. Lemmon Survey MPS 220636
2009 02 20.22405 09 00 22.57 +07 43 36.0 20.6 V 703 – Catalina Sky Survey MPS 277614
2009 02 20.23004 09 00 22.32 +07 43 36.7 20.4 V 703 – Catalina Sky Survey MPS 277614
2009 02 20.23603 09 00 21.92 +07 43 38.1 21.1 V 703 – Catalina Sky Survey MPS 277614
2009 02 20.24201 09 00 21.60 +07 43 39.8 19.9 V 703 – Catalina Sky Survey MPS 277614
2011 10 01.40595 02 38 45.78 +21 16 04.4   691 – Steward Observatory, Kitt Peak-Spacewatch MPS 394244
2011 10 01.42375 02 38 45.20 +21 16 01.4   691 – Steward Observatory, Kitt Peak-Spacewatch MPS 394244
2011 10 01.44156 02 38 44.62 +21 15 58.9   691 – Steward Observatory, Kitt Peak-Spacewatch MPS 394244
2011 10 18.22787 02 26 45.85 +20 10 09.7 20.9 V 691 – Steward Observatory, Kitt Peak-Spacewatch MPS 395064
2011 10 18.24566 02 26 44.84 +20 10 04.0 20.8 V 691 – Steward Observatory, Kitt Peak-Spacewatch MPS 395064
2011 10 18.26345 02 26 43.87 +20 09 58.3 20.6 V 691 – Steward Observatory, Kitt Peak-Spacewatch MPS 395064
2013 03 13.32853 11 44 03.80 -08 18 50.1 20.2 V 703 – Catalina Sky Survey MPS 459304
2013 03 13.33478 11 44 03.44 -08 18 48.7 20.8 V 703 – Catalina Sky Survey MPS 459304
2013 03 13.34101 11 44 03.19 -08 18 48.3 20.1 V 703 – Catalina Sky Survey MPS 459304
2013 03 13.35353 11 44 02.36 -08 18 43.5 19.7 V 703 – Catalina Sky Survey MPS 459304
2013 04 05.32982 11 25 03.111 -05 38 08.62 20.2 w F51 – Pan-STARRS 1, Haleakala MPS 462729
2013 04 05.34353 11 25 02.536 -05 38 02.72 20.2 w F51 – Pan-STARRS 1, Haleakala MPS 462729
2013 04 05.34419 11 25 02.510 -05 38 02.32 20.2 w F51 – Pan-STARRS 1, Haleakala MPS 462729
2013 04 05.35790 11 25 01.936 -05 37 56.54 20.2 w F51 – Pan-STARRS 1, Haleakala MPS 462729
2013 04 05.35856 11 25 01.914 -05 37 56.22 20.1 w F51 – Pan-STARRS 1, Haleakala MPS 462729
2013 04 05.37231 11 25 01.327 -05 37 50.29 20.4 w F51 – Pan-STARRS 1, Haleakala MPS 462729
2013 04 05.37298 11 25 01.302 -05 37 49.97 20.2 w F51 – Pan-STARRS 1, Haleakala MPS 462729
2013 05 07.97153 11 18 09.36 -02 48 56.4 21.0 r W84 – Cerro Tololo-DECam MPS 811903
2013 05 07.97598 11 18 09.41 -02 48 55.7   W84 – Cerro Tololo-DECam MPS 811903
2013 05 07.99189 11 18 09.62 -02 48 53.4   W84 – Cerro Tololo-DECam MPS 811903
2013 05 07.99658 11 18 09.69 -02 48 52.7   W84 – Cerro Tololo-DECam MPS 811903
2014 06 29.47623 21 13 27.996 -09 15 42.33 21.1 w F51 – Pan-STARRS 1, Haleakala MPS 522780
2014 06 29.48851 21 13 27.654 -09 15 41.12 21.1 w F51 – Pan-STARRS 1, Haleakala MPS 522780
2014 06 29.50084 21 13 27.317 -09 15 40.06 21.3 w F51 – Pan-STARRS 1, Haleakala MPS 522780
2014 06 29.51308 21 13 26.973 -09 15 39.32 21.0 w F51 – Pan-STARRS 1, Haleakala MPS 522780
2014 07 01.36892 21 12 36.47 -09 13 23.2 20.8 V 691 – Steward Observatory, Kitt Peak-Spacewatch MPS 522185
2014 07 01.38669 21 12 35.95 -09 13 21.8 21.2 V 691 – Steward Observatory, Kitt Peak-Spacewatch MPS 522185
2014 07 01.40742 21 12 35.33 -09 13 19.9 20.9 V 691 – Steward Observatory, Kitt Peak-Spacewatch MPS 522185
2014 07 07.52830 21 09 11.516 -09 09 14.82 21.0 w F51 – Pan-STARRS 1, Haleakala MPS 522780
2014 07 07.54011 21 09 11.035 -09 09 14.84 21.1 w F51 – Pan-STARRS 1, Haleakala MPS 522780
2014 07 07.55193 21 09 10.569 -09 09 14.52 21.0 w F51 – Pan-STARRS 1, Haleakala MPS 522780
2014 07 07.56377 21 09 10.110 -09 09 14.24 21.1 w F51 – Pan-STARRS 1, Haleakala MPS 522780
2014 07 28.41076 20 52 01.812 -09 32 36.78 20.8 w F51 – Pan-STARRS 1, Haleakala MPS 525434
2014 07 28.42137 20 52 01.180 -09 32 38.21 20.7 w F51 – Pan-STARRS 1, Haleakala MPS 525434
2014 07 28.43201 20 52 00.545 -09 32 39.70 20.6 w F51 – Pan-STARRS 1, Haleakala MPS 525434
2014 07 28.44267 20 51 59.918 -09 32 41.27 20.7 w F51 – Pan-STARRS 1, Haleakala MPS 525434
2014 08 03.43546 20 46 13.122 -09 48 11.91 20.5 w F51 – Pan-STARRS 1, Haleakala MPS 526495
2014 08 03.44600 20 46 12.480 -09 48 13.70 20.5 w F51 – Pan-STARRS 1, Haleakala MPS 526495
2014 08 03.45654 20 46 11.846 -09 48 15.41 20.7 w F51 – Pan-STARRS 1, Haleakala MPS 526495
2014 08 16.42371 20 34 11.728 -10 29 10.63 20.5 i F51 – Pan-STARRS 1, Haleakala MPS 527988
2014 08 16.43681 20 34 11.020 -10 29 13.22 20.4 i F51 – Pan-STARRS 1, Haleakala MPS 527988
2014 08 16.44989 20 34 10.328 -10 29 15.77 20.5 i F51 – Pan-STARRS 1, Haleakala MPS 527988
2014 08 16.46294 20 34 09.623 -10 29 18.67 20.4 i F51 – Pan-STARRS 1, Haleakala MPS 527988
2014 08 20.32527 20 30 59.239 -10 42 24.21 20.9 w F51 – Pan-STARRS 1, Haleakala MPS 527988
2014 08 20.33761 20 30 58.622 -10 42 26.67 20.8 w F51 – Pan-STARRS 1, Haleakala MPS 527988
2014 08 20.34991 20 30 58.017 -10 42 29.32 20.8 w F51 – Pan-STARRS 1, Haleakala MPS 527988
2014 08 20.36220 20 30 57.409 -10 42 31.74 20.8 w F51 – Pan-STARRS 1, Haleakala MPS 527988
2014 08 21.30326 20 30 13.534 -10 45 43.52 20.8 w F51 – Pan-STARRS 1, Haleakala MPS 527988
2014 08 21.31521 20 30 12.961 -10 45 45.91 20.8 w F51 – Pan-STARRS 1, Haleakala MPS 527988
2014 08 21.32714 20 30 12.390 -10 45 48.39 20.8 w F51 – Pan-STARRS 1, Haleakala MPS 527988
2014 08 21.33906 20 30 11.803 -10 45 50.86 20.8 w F51 – Pan-STARRS 1, Haleakala MPS 527988
2014 08 30.20153 20 24 14.34 -11 15 18.8 20.8 V G96 – Mt. Lemmon Survey MPS 531381
2014 08 30.21342 20 24 13.92 -11 15 21.1 21.0 V G96 – Mt. Lemmon Survey MPS 531381
2014 08 30.21938 20 24 13.68 -11 15 21.9 20.5 V G96 – Mt. Lemmon Survey MPS 531381
2015 09 23.53554 04 57 34.062 +24 48 37.45 21.6 w F51 – Pan-STARRS 1, Haleakala MPS 631795
